Location: Wald
(31.7579°N, 86.6655°W)
Time: 11:55:05
(UTC+00:00)

ERBS - Pass Details

Date: 14 July 2020
Orbit: 408 x 426 km, 57.0° (Epoch: 08 August)

Event Time Altitude Azimuth Distance (km) Brightness Sun altitude
Exits shadow 08:58:51 71° 104° (ESE) 436 2.3 -20.5°
Drops below altitude 10° 09:02:00 10° 42° (NE) 1,471 6.2 -20.0°
Sets 09:04:04 0° 40° (NE) 2,334 7.6 -19.7°
